Regional Weather Roundup
Issued by NWS

Home | Current Version | Previous Version | Graphics & Text | Print | Product List | Glossary On
Versions: 1 2 3 4 5 6 7 8 9 10 11 12 13 14 15 16 17 18 19 20 21 22 23 24 25 26 27 28 29 30 31 32 33 34 35 36 37 38 39 40 41 42 43 44 45 46 47 48 49 50
000
ASUS43 KIND 140859
RWRIN

WEATHER ROUNDUP FOR INDIANA
NATIONAL WEATHER SERVICE INDIANAPOLIS IN
400 AM EST THU DEC 14 2017

NOTE: "FAIR" INDICATES FEW OR NO CLOUDS BELOW 12,000 FEET WITH NO
SIGNIFICANT WEATHER AND/OR OBSTRUCTIONS TO VISIBILITY.

* - STATION DOES NOT REPORT WEATHER SUCH AS PRECIPITATION OR FOG.

+ - STATION NOT QUALITY CONTROLLED BY THE NATIONAL WEATHER SERVICE.
    USE DATA WITH CAUTION...ESPECIALLY DEWPOINT AND RELATIVE
    HUMIDITY OBSERVATIONS.

INZ001>003-010>013-019-020-141000-
NORTHWEST INDIANA

CITY           SKY/WX    TMP DP  RH WIND       PRES   REMARKS
KNOX *+        CLOUDY    23  19  86 NE7       29.88R WCI  15
LA PORTE +     FLURRIES  22  17  81 NE7       29.88R WCI  14
MICHIGAN CITY+ CLOUDY    25  18  74 E7        29.88R WCI  17
MONTICELLO +   CLOUDY    29  17  62 N15G21    29.84R WCI  17
RENSSELAER +   CLOUDY    30  16  55 N9G17     29.87R WCI  22

$$

LMZ046-743>745-141000-
SOUTHERN LAKE MICHIGAN

STATION/POSITION TIME  TEMP    WIND        PRES    WAVE
                       AIR SEA DIR/SP/G            HT
                 (UTC) (F)     (DEG/KT/KT) (MB)    (FT)
BURNS HARBOR     0840   30      20/ 18/ 24 1011.9R
MICHIGAN CITY    0830   28     360/ 25/ 26   N/A

$$

INZ004-005-014>016-021>024-141000-
NORTH CENTRAL INDIANA

CITY           SKY/WX    TMP DP  RH WIND       PRES   REMARKS
GOSHEN         CLOUDY    20  14  77 N8        29.84R WCI  10
PERU/GRISSOM   CLEAR     22  15  73 N13       29.82R WCI  10
ROCHESTER +    CLEAR     21  18  86 N3        29.86R
SOUTH BEND     CLEAR     11  10  96 N9        29.87R WCI  -2
WARSAW +       CLOUDY    19  14  79 N8        29.85R WCI   9

$$

INZ006>009-017-018-025>027-141000-
NORTHEAST INDIANA

CITY           SKY/WX    TMP DP  RH WIND       PRES   REMARKS
AUBURN +       CLOUDY    21  16  79 N8        29.82R WCI  12
FORT WAYNE     CLOUDY    21  15  78 N15       29.82R WCI   8
KENDALLVILLE + CLOUDY    19  14  82 N10G21    29.80R WCI   7

$$

INZ028-029-035-036-043>045-051>053-141000-
WEST CENTRAL INDIANA

CITY           SKY/WX    TMP DP  RH WIND       PRES   REMARKS
CRAWFORDSVL +  CLOUDY    27  20  75 NW10      29.83R WCI  17
GREENCASTLE +  CLOUDY    30  19  64 NW7       29.86R WCI  23
LAFAYETTE      CLOUDY    29  19  66 N14G21    29.87R WCI  18
TERRE HAUTE    CLOUDY    29  19  66 W7        29.89R WCI  22

$$

INZ030>032-037>040-046>048-054>057-064-065-141000-
CENTRAL INDIANA

CITY           SKY/WX    TMP DP  RH WIND       PRES   REMARKS
FRANKFORT +    CLOUDY    31  21  66 N13       29.86R WCI  21
GREENWOOD *+   CLOUDY    33  22  64 NW18G29   29.82R WCI  22
INDIANAPOLIS   CLOUDY    30  20  66 N14G25    29.82R WCI  19
-EAGLE CREEK   CLOUDY    30  19  63 N13       29.81R WCI  20
KOKOMO +       CLEAR     23  16  74 N15G21    29.84R WCI  10
MT COMFORT *+  CLOUDY    28  21  74 N17       29.82R WCI  16
SHELBYVILLE    CLOUDY    31  18  58 NW15G24   29.80R WCI  20

$$

INZ033-034-041-042-049-050-058-059-141000-
EAST CENTRAL INDIANA

CITY           SKY/WX    TMP DP  RH WIND       PRES   REMARKS
MUNCIE         CLEAR     24  16  71 N17       29.81R WCI  11
RICHMOND +     CLOUDY    28  19  69 NW16G24   29.76R WCI  17

$$

INZ060-061-067>069-081>083-085>088-141000-
SOUTHWEST INDIANA

CITY           SKY/WX    TMP DP  RH WIND       PRES   REMARKS
EVANSVILLE     CLOUDY    36  25  64 NW9G22    29.90R WCI  29
HUNTINGBURG +  CLOUDY    34  24  67 N12       29.88R WCI  25

$$

INZ062-063-066-070>080-084-089>092-141000-
SOUTH CENTRAL AND SOUTHEAST INDIANA

CITY           SKY/WX    TMP DP  RH WIND       PRES   REMARKS
BLOOMINGTON    CLOUDY    29  18  63 N5        29.84S WCI  24
SEYMOUR +      PTCLDY    32  19  59 NW12      29.84R WCI  23

$$





USA.gov is the U.S. government's official web portal to all federal, state and local government web resources and services.